Regional Weather Roundup
Issued by NWS

Home | Current Version | Previous Version | Graphics & Text | Print | Product List | Glossary On
Versions: 1 2 3 4 5 6 7 8 9 10 11 12 13 14 15 16 17 18 19 20 21 22 23 24 25 26 27 28 29 30 31 32 33 34 35 36 37 38 39 40 41 42 43 44 45 46 47 48 49 50
205
ASUS44 KMEG 181500
RWRTN
TENNESSEE HOURLY STATE WEATHER ROUNDUP
NATIONAL WEATHER SERVICE MEMPHIS TN
1000 AM CDT FRI AUG 18 2017

TNZ002-004-019-021-049-052-054-088>092-181600-
WEST TENNESSEE

CITY           SKY/WX    TMP DP  RH WIND       PRES   REMARKS
MEMPHIS INTL   MOSUNNY   82  72  71 CALM      30.05R
NWS MEMPHIS      N/A     81 N/A N/A MISG        N/A
JACKSON        SUNNY     81  69  67 W6        30.04R
DYERSBURG      SUNNY     80  71  74 VRB5      30.04R
$$

TNZ008-025-027-028-033-062-065-066-181600-
NORTH MIDDLE TENNESSEE

CITY           SKY/WX    TMP DP  RH WIND       PRES   REMARKS
NASHVILLE      PTSUNNY   83  67  58 W6        30.01R
CLARKSVILLE    SUNNY     80  67  64 W6        30.00R
SMYRNA         MOSUNNY   82  70  66 W6        30.01S
CROSSVILLE     PTSUNNY   74  69  85 W12       30.05S
$$

TNZ061-075-076-078-094-096-097-181600-
SOUTH MIDDLE TENNESSEE

CITY           SKY/WX    TMP DP  RH WIND       PRES   REMARKS
TULLAHOMA        N/A     79  70  73 VRB6      30.04S
WINCHESTER     MOSUNNY   81  72  74 W9        30.03S
$$

TNZ017-018-042-046-047-181600-
NORTHEAST TENNESSEE

CITY           SKY/WX    TMP DP  RH WIND       PRES   REMARKS
TRI CITIES     CLOUDY    80  72  76 W9        30.00S
$$

TNZ012-013-036-069-073-074-181600-
CENTRAL EAST TENNESSEE

CITY           SKY/WX    TMP DP  RH WIND       PRES   REMARKS
KNOXVILLE      CLOUDY    75  72  90 SW8       29.99R
OAK RIDGE      CLOUDY    79  73  82 S6        30.00R
GATLINBURG     CLOUDY    79  72  78 W13       29.99R
$$

TNZ083-085-099-181600-
SOUTHEAST TENNESSEE

CITY           SKY/WX    TMP DP  RH WIND       PRES   REMARKS
CHATTANOOGA    PTSUNNY   83  71  67 NW8       30.01R
$$

SKY/WX REPORTED AS FAIR MEANS FEW OR NO CLOUDS BELOW
12 THOUSAND FEET.





USA.gov is the U.S. government's official web portal to all federal, state and local government web resources and services.